Regional Weather Roundup
Issued by NWS Charleston, WV

Home | Current Version | Previous Version | Graphics & Text | Print | Product List | Glossary On
Versions: 1 2 3 4 5 6 7 8 9 10 11 12 13 14 15 16 17 18 19 20 21 22 23 24 25 26 27 28 29 30 31 32 33 34 35 36 37 38 39 40 41 42 43 44 45 46 47 48 49 50
000
ASUS41 KRLX 230810
RWRRLX
West Virginia Regional Weather Roundup
National Weather Service Charleston WV
400 AM EDT WED JUL 23 2014

Note: "fair" indicates few or no clouds below 12,000 feet with no
significant weather and/or obstructions to visibility.

WVZ003-230900-
Northern Panhandle of West Virginia

CITY           SKY/WX    TMP DP  RH WIND       PRES   REMARKS
WHEELING       CLEAR     72  68  87 S8        29.99F
$$

WVZ009-230900-
Northwest West Virginia

CITY           SKY/WX    TMP DP  RH WIND       PRES   REMARKS
PARKERSBURG      N/A    N/A N/A N/A MISG      30.03F
$$

WVZ006-230900-
Western West Virginia

CITY           SKY/WX    TMP DP  RH WIND       PRES   REMARKS
HUNTINGTON     PTCLDY    72  71  97 S3        30.03S
$$

WVZ015-230900-
West Central West Virginia

CITY           SKY/WX    TMP DP  RH WIND       PRES   REMARKS
CHARLESTON     PTCLDY    71  70  96 S3        30.03F
$$

WVZ031-230900-
North Central West Virginia

CITY           SKY/WX    TMP DP  RH WIND       PRES   REMARKS
CLARKSBURG     CLEAR     69  66  90 CALM      30.04F
MORGANTOWN     CLEAR     70  66  87 S3        30.04F
$$

WVZ035-042-045-230900-
South Central West Virginia

CITY           SKY/WX    TMP DP  RH WIND       PRES   REMARKS
BECKLEY        CLEAR     67  63  87 CALM      30.15F
BLUEFIELD      PTCLDY    69  63  81 SW3       30.18S
LEWISBURG      PTCLDY    67  64  91 CALM      30.14F
$$

WVZ047-230900-
Northern Mountains of West Virginia

CITY           SKY/WX    TMP DP  RH WIND       PRES   REMARKS
ELKINS         FOG       65  63  93 CALM      30.11F VSB 1/4
$$

WVZ052-230900-
Eastern Panhandle of West Virginia

CITY           SKY/WX    TMP DP  RH WIND       PRES   REMARKS
MARTINSBURG    MOCLDY    70  66  87 CALM      30.01F FOG
PETERSBURG     MOCLDY    69  65  88 CALM      30.05F FOG
$$



USA.gov is the U.S. government's official web portal to all federal, state and local government web resources and services.